EW4877 Weather Reports


Display with metric or nautical units.
time (UTC)temp
F
wind
direction
speed
MPH
gust
MPH
rain 1hr
in
rain 24hr
in
rain mn
in
humidity
%
barometer
mb
20220702204540 82 217 5.0 16.0 0.00 0.00 0.00 39 1011.2
20220702204034 82 252 4.0 12.0 0.00 0.00 0.00 39 1011.2
20220702203528 82 230 5.0 10.0 0.00 0.00 0.00 40 1011.2
20220702203023 82 203 6.0 11.0 0.00 0.00 0.00 41 1011.4
20220702202517 82 208 5.0 13.0 0.00 0.00 0.00 41 1011.4
20220702202010 81 213 6.0 14.0 0.00 0.00 0.00 43 1011.5
20220702201505 81 225 6.0 15.0 0.00 0.00 0.00 41 1011.5
20220702200958 82 194 6.0 14.0 0.00 0.00 0.00 40 1011.6
20220702200452 82 200 5.0 14.0 0.00 0.00 0.00 43 1011.6
20220702195946 81 228 4.0 12.0 0.00 0.00 0.00 44 1011.5
20220702195440 81 154 5.0 13.0 0.00 0.00 0.00 44 1011.6
20220702194935 80 261 6.0 14.0 0.00 0.00 0.00 43 1011.7
20220702194428 80 42 6.0 14.0 0.00 0.00 0.00 43 1011.7
20220702193922 80 222 6.0 17.0 0.00 0.00 0.00 44 1011.7
20220702193416 80 204 6.0 17.0 0.00 0.00 0.00 43 1011.8
20220702192910 80 223 6.0 15.0 0.00 0.00 0.00 43 1011.8
20220702192404 80 218 6.0 15.0 0.00 0.00 0.00 43 1011.8
20220702191858 80 196 6.0 14.0 0.00 0.00 0.00 45 1011.8
20220702191352 80 201 7.0 15.0 0.00 0.00 0.00 46 1011.8
20220702190847 80 217 5.0 15.0 0.00 0.00 0.00 44 1011.8
20220702190340 79 165 4.0 10.0 0.00 0.00 0.00 45 1011.8
20220702185834 79 140 3.0 9.0 0.00 0.00 0.00 46 1011.7
20220702185327 79 206 3.0 15.0 0.00 0.00 0.00 44 1011.7
20220702184822 78 236 4.0 15.0 0.00 0.00 0.00 46 1011.8
20220702184317 78 171 4.0 12.0 0.00 0.00 0.00 47 1011.8
20220702183811 78 212 4.0 12.0 0.00 0.00 0.00 46 1011.9
20220702183304 77 221 4.0 11.0 0.00 0.00 0.00 47 1012.0
20220702182758 76 240 5.0 11.0 0.00 0.00 0.00 50 1012.0
20220702182252 76 217 5.0 11.0 0.00 0.00 0.00 49 1011.9
20220702181746 76 219 4.0 11.0 0.00 0.00 0.00 51 1012.0
20220702181240 76 214 4.0 12.0 0.00 0.00 0.00 52 1012.0
20220702180734 75 144 5.0 12.0 0.00 0.00 0.00 53 1012.0
20220702180229 75 157 4.0 10.0 0.00 0.00 0.00 52 1012.0
20220702175722 74 151 5.0 15.0 0.00 0.00 0.00 52 1012.0
20220702175218 74 231 6.0 15.0 0.00 0.00 0.00 53 1012.1
20220702174710 74 216 6.0 15.0 0.00 0.00 0.00 51 1012.1
20220702174206 74 198 7.0 15.0 0.00 0.00 0.00 53 1012.2
20220702173658 74 173 5.0 13.0 0.00 0.00 0.00 52 1012.2
20220702173152 74 210 3.0 12.0 0.00 0.00 0.00 52 1012.2
20220702172653 74 202 3.0 12.0 0.00 0.00 0.00 52 1012.2
20220702172150 74 198 3.0 7.0 0.00 0.00 0.00 53 1012.2
20220702171650 73 198 3.0 10.0 0.00 0.00 0.00 55 1012.3
20220702171150 73 195 3.0 10.0 0.00 0.00 0.00 54 1012.3
20220702170651 73 190 3.0 11.0 0.00 0.00 0.00 53 1012.3
20220702170150 72 148 4.0 19.0 0.00 0.00 0.00 54 1012.3
20220702165648 72 202 5.0 19.0 0.00 0.00 0.00 56 1012.3
20220702165148 72 211 4.0 14.0 0.00 0.00 0.00 55 1012.3
20220702164648 72 215 3.0 14.0 0.00 0.00 0.00 54 1012.4
20220702164148 71 123 2.0 8.0 0.00 0.00 0.00 56 1012.3
20220702163648 71 166 3.0 8.0 0.00 0.00 0.00 59 1012.3
20220702163148 71 184 3.0 8.0 0.00 0.00 0.00 57 1012.3
20220702162648 70 153 3.0 9.0 0.00 0.00 0.00 59 1012.5
20220702162147 70 186 2.0 9.0 0.00 0.00 0.00 57 1012.3
20220702161644 69 136 2.0 12.0 0.00 0.00 0.00 59 1012.4
20220702161151 69 190 2.0 12.0 0.00 0.00 0.00 59 1012.3
20220702160644 69 151 2.0 8.0 0.00 0.00 0.00 60 1012.3
20220702160145 68 192 2.0 8.0 0.00 0.00 0.00 61 1012.3
20220702155642 68 209 2.0 8.0 0.00 0.00 0.00 61 1012.3
20220702155144 67 207 2.0 7.0 0.00 0.00 0.00 61 1012.3
20220702154641 67 163 2.0 7.0 0.00 0.00 0.00 62 1012.3
20220702154142 67 180 2.0 6.0 0.00 0.00 0.00 69 1012.3
20220702153642 67 159 2.0 7.0 0.00 0.00 0.00 63 1012.3
20220702153143 66 139 2.0 7.0 0.00 0.00 0.00 65 1012.3
20220702152643 66 207 2.0 7.0 0.00 0.00 0.00 65 1012.3
20220702152142 65 158 2.0 10.0 0.00 0.00 0.00 65 1012.3
20220702151643 65 145 2.0 10.0 0.00 0.00 0.00 66 1012.3
20220702151138 64 163 2.0 7.0 0.00 0.00 0.00 66 1012.4
20220702150639 64 244 2.0 7.0 0.00 0.00 0.00 67 1012.4
20220702150138 64 241 2.0 5.0 0.00 0.00 0.00 68 1012.3
20220702145638 63 156 2.0 6.0 0.00 0.00 0.00 69 1012.3
20220702145138 63 138 2.0 7.0 0.00 0.00 0.00 71 1012.2
20220702144638 62 217 2.0 8.0 0.00 0.00 0.00 74 1012.2
20220702144138 62 205 2.0 8.0 0.00 0.00 0.00 70 1012.2
20220702143638 62 157 2.0 6.0 0.00 0.00 0.00 72 1012.2
20220702143138 61 171 2.0 6.0 0.00 0.00 0.00 73 1012.3
20220702142634 61 203 2.0 6.0 0.00 0.00 0.00 74 1012.2
20220702142134 60 209 2.0 6.0 0.00 0.00 0.00 75 1012.2
20220702141634 59 227 2.0 6.0 0.00 0.00 0.00 77 1012.1
20220702141134 59 236 1.0 6.0 0.00 0.00 0.00 78 1012.1
20220702140634 58 203 1.0 5.0 0.00 0.00 0.00 79 1012.1
20220702140136 58 152 1.0 5.0 0.00 0.00 0.00 80 1012.1
20220702135634 58 146 1.0 4.0 0.00 0.00 0.00 80 1012.1
20220702135134 57 203 2.0 4.0 0.00 0.00 0.00 81 1012.0
20220702134634 57 196 2.0 6.0 0.00 0.00 0.00 81 1012.0
20220702134131 57 178 1.0 6.0 0.00 0.00 0.00 80 1012.0
20220702133629 57 125 1.0 6.0 0.00 0.00 0.00 81 1011.9
20220702133130 57 130 1.0 6.0 0.00 0.00 0.00 80 1011.9
20220702132628 57 145 1.0 6.0 0.00 0.00 0.00 80 1011.8
20220702132128 57 159 1.0 5.0 0.00 0.00 0.00 80 1011.8
20220702131625 57 143 1.0 4.0 0.00 0.00 0.00 80 1011.8
20220702131124 57 159 1.0 4.0 0.00 0.00 0.00 80 1011.8
20220702130621 57 144 1.0 4.0 0.00 0.00 0.00 80 1011.8
20220702130119 57 148 1.0 7.0 0.00 0.00 0.00 80 1011.8
20220702125618 57 161 1.0 7.0 0.00 0.00 0.00 80 1011.9
20220702125115 57 190 1.0 4.0 0.00 0.00 0.00 83 1011.8
20220702124613 57 189 0.0 3.0 0.00 0.00 0.00 80 1011.8
20220702124112 57 186 1.0 7.0 0.00 0.00 0.00 79 1011.7
20220702123612 57 185 1.0 7.0 0.00 0.00 0.00 79 1011.7
20220702123112 57 183 2.0 9.0 0.00 0.00 0.00 79 1011.6
20220702122612 57 196 2.0 9.0 0.00 0.00 0.00 79 1011.5
20220702122109 57 192 1.0 4.0 0.00 0.00 0.00 79 1011.5
20220702121609 57 209 1.0 6.0 0.00 0.00 0.00 79 1011.4
20220702121103 57 165 1.0 6.0 0.00 0.00 0.00 79 1011.4
20220702120557 57 201 1.0 3.0 0.00 0.00 0.00 79 1011.4
20220702120051 57 167 1.0 4.0 0.00 0.00 0.00 79 1011.4
20220702115545 57 102 1.0 4.0 0.00 0.00 0.00 79 1011.4
20220702115040 57 161 2.0 7.0 0.00 0.00 0.00 78 1011.4
20220702114534 58 165 1.0 5.0 0.00 0.00 0.00 78 1011.4
20220702114027 58 248 2.0 7.0 0.00 0.00 0.00 78 1011.4
20220702113520 58 121 2.0 7.0 0.00 0.00 0.00 77 1011.4
20220702113016 58 191 2.0 6.0 0.00 0.00 0.00 77 1011.4
20220702112509 58 215 2.0 6.0 0.00 0.00 0.00 77 1011.4
20220702112002 58 153 2.0 6.0 0.00 0.00 0.00 76 1011.4
20220702111457 58 181 2.0 6.0 0.00 0.00 0.00 76 1011.4
20220702110950 59 194 2.0 5.0 0.00 0.00 0.00 76 1011.4
20220702110445 59 200 2.0 6.0 0.00 0.00 0.00 75 1011.4
20220702105939 59 194 1.0 6.0 0.00 0.00 0.00 75 1011.4
20220702105433 59 138 1.0 5.0 0.00 0.00 0.00 75 1011.4
20220702104927 59 196 1.0 5.0 0.00 0.00 0.00 74 1011.4
20220702104421 59 200 1.0 3.0 0.00 0.00 0.00 74 1011.4
20220702103919 60 191 1.0 6.0 0.00 0.00 0.00 74 1011.4
20220702103405 60 101 2.0 7.0 0.00 0.00 0.00 73 1011.3
20220702102859 60 152 2.0 7.0 0.00 0.00 0.00 73 1011.3
20220702102356 60 163 2.0 4.0 0.00 0.00 0.00 72 1011.4
20220702101848 60 156 2.0 5.0 0.00 0.00 0.00 72 1011.4
20220702101341 60 190 2.0 5.0 0.00 0.00 0.00 72 1011.4
20220702100836 60 155 2.0 5.0 0.00 0.00 0.00 71 1011.3
20220702100329 60 125 2.0 7.0 0.00 0.00 0.00 70 1011.3
20220702095823 60 174 1.0 7.0 0.00 0.00 0.00 70 1011.3
20220702095317 60 180 1.0 5.0 0.00 0.00 0.00 70 1011.4
20220702094810 60 179 1.0 6.0 0.00 0.00 0.00 70 1011.4
20220702094305 60 167 1.0 6.0 0.00 0.00 0.00 70 1011.4
20220702093759 60 195 1.0 3.0 0.00 0.00 0.00 70 1011.4
20220702093254 61 165 1.0 5.0 0.00 0.00 0.00 69 1011.4
20220702092747 61 172 1.0 5.0 0.00 0.00 0.00 69 1011.4
20220702092241 61 207 2.0 7.0 0.00 0.00 0.00 68 1011.4
20220702091735 61 199 2.0 7.0 0.00 0.00 0.00 68 1011.4
20220702091229 61 205 2.0 6.0 0.00 0.00 0.00 68 1011.4
20220702090723 61 231 2.0 6.0 0.00 0.00 0.00 67 1011.4
20220702090217 61 200 2.0 6.0 0.00 0.00 0.00 67 1011.4
20220702085711 62 200 2.0 4.0 0.00 0.00 0.00 66 1011.3
20220702085205 62 208 2.0 4.0 0.00 0.00 0.00 66 1011.3
20220702084702 62 216 2.0 5.0 0.00 0.00 0.00 66 1011.3
20220702084153 62 209 2.0 5.0 0.00 0.00 0.00 65 1011.3
20220702083647 62 213 2.0 8.0 0.00 0.00 0.00 65 1011.2
20220702083141 63 211 2.0 8.0 0.00 0.00 0.00 64 1011.2
20220702082636 63 201 2.0 6.0 0.00 0.00 0.00 64 1011.1
20220702082129 63 202 1.0 5.0 0.00 0.00 0.00 64 1011.1
20220702081624 63 193 2.0 5.0 0.00 0.00 0.00 64 1011.1
20220702081117 63 194 2.0 6.0 0.00 0.00 0.00 63 1011.1
20220702080612 63 217 2.0 6.0 0.00 0.00 0.00 63 1011.1
20220702080104 64 196 2.0 7.0 0.00 0.00 0.00 63 1011.1
20220702075559 64 192 2.0 7.0 0.00 0.00 0.00 62 1011.1
20220702075053 64 184 1.0 4.0 0.00 0.00 0.00 62 1011.1
20220702074547 64 165 1.0 4.0 0.00 0.00 0.00 62 1011.1
20220702074041 65 175 1.0 4.0 0.00 0.00 0.00 61 1011.1
20220702073535 65 194 1.0 8.0 0.00 0.00 0.00 61 1011.1
20220702073029 65 213 2.0 8.0 0.00 0.00 0.00 60 1011.1
20220702072523 65 192 2.0 9.0 0.00 0.00 0.00 60 1011.0
20220702072017 65 193 2.0 9.0 0.00 0.00 0.00 59 1011.0
20220702071511 66 188 2.0 8.0 0.00 0.00 0.00 59 1011.0
20220702071005 66 163 2.0 9.0 0.00 0.00 0.00 58 1011.0
20220702070459 66 189 2.0 9.0 0.00 0.00 0.00 58 1011.0
20220702065953 67 215 1.0 5.0 0.00 0.00 0.00 57 1011.0
20220702065447 67 200 2.0 6.0 0.00 0.00 0.00 56 1011.0
20220702064942 67 198 2.0 7.0 0.00 0.00 0.00 56 1011.0
20220702064436 67 205 2.0 7.0 0.00 0.00 0.00 55 1010.9
20220702063929 68 196 2.0 8.0 0.00 0.00 0.00 54 1010.9
20220702063423 68 198 2.0 8.0 0.00 0.00 0.00 53 1010.9
20220702062918 68 213 2.0 6.0 0.00 0.00 0.00 52 1010.9
20220702062412 69 190 2.0 6.0 0.00 0.00 0.00 52 1010.9
20220702061905 69 218 2.0 5.0 0.00 0.00 0.00 51 1010.9
20220702061359 69 175 2.0 7.0 0.00 0.00 0.00 51 1010.9
20220702060854 70 232 2.0 7.0 0.00 0.00 0.00 50 1010.9
20220702060347 70 198 2.0 5.0 0.00 0.00 0.00 49 1010.9
20220702055841 70 215 2.0 8.0 0.00 0.00 0.00 48 1010.9
20220702055335 71 169 2.0 8.0 0.00 0.00 0.00 47 1010.9
20220702054829 72 193 2.0 9.0 0.00 0.00 0.00 46 1011.0
20220702054323 72 198 2.0 9.0 0.00 0.00 0.00 45 1010.9
20220702053816 73 188 1.0 8.0 0.00 0.00 0.00 44 1010.9
20220702053311 73 207 1.0 6.0 0.00 0.00 0.00 44 1010.9
20220702052805 73 166 2.0 7.0 0.00 0.00 0.00 43 1010.8
20220702052259 74 203 2.0 7.0 0.00 0.00 0.00 43 1010.8
20220702051753 74 78 2.0 6.0 0.00 0.00 0.00 42 1010.8
20220702051248 75 197 1.0 5.0 0.00 0.00 0.00 42 1010.7
20220702050741 75 125 1.0 4.0 0.00 0.00 0.00 42 1010.6
20220702050235 75 180 1.0 3.0 0.00 0.00 0.00 42 1010.5
20220702045730 76 194 1.0 5.0 0.00 0.00 0.00 42 1010.5
20220702045223 76 198 1.0 5.0 0.00 0.00 0.00 41 1010.5
20220702044717 76 198 1.0 5.0 0.00 0.00 0.00 41 1010.4
20220702044211 77 203 1.0 4.0 0.00 0.00 0.00 40 1010.4
20220702043705 77 209 2.0 4.0 0.00 0.00 0.00 39 1010.4
20220702043158 78 211 1.0 4.0 0.00 0.00 0.00 38 1010.3
20220702042653 78 223 1.0 5.0 0.00 0.00 0.00 38 1010.2
20220702042147 79 214 2.0 8.0 0.00 0.00 0.00 37 1010.1
20220702041641 79 178 3.0 8.0 0.00 0.00 0.00 36 1010.1
20220702041136 80 194 3.0 10.0 0.00 0.00 0.00 36 1010.0
20220702040629 80 200 3.0 10.0 0.00 0.00 0.00 37 1009.9
20220702040123 81 214 3.0 8.0 0.00 0.00 0.00 36 1009.9
20220702035616 81 239 4.0 8.0 0.00 0.00 0.00 35 1009.9
20220702035111 82 214 5.0 9.0 0.00 0.00 0.00 34 1009.9
20220702034605 82 210 4.0 9.0 0.00 0.00 0.00 33 1009.8
20220702034059 83 223 3.0 7.0 0.00 0.00 0.00 31 1009.7
20220702033554 83 209 3.0 7.0 0.00 0.00 0.00 27 1009.7
20220702033047 84 229 3.0 7.0 0.00 0.00 0.00 26 1009.6
20220702032541 84 205 3.0 8.0 0.00 0.00 0.00 24 1009.6
20220702032035 85 219 3.0 8.0 0.00 0.00 0.00 22 1009.6
20220702031530 85 210 3.0 6.0 0.00 0.00 0.00 22 1009.6
20220702031023 86 221 3.0 7.0 0.00 0.00 0.00 22 1009.6
20220702030517 86 207 3.0 8.0 0.00 0.00 0.00 21 1009.6
20220702030012 87 222 2.0 8.0 0.00 0.00 0.00 21 1009.5
20220702025505 87 200 3.0 7.0 0.00 0.00 0.00 20 1009.5
20220702024959 88 184 4.0 10.0 0.00 0.00 0.00 20 1009.4
20220702024453 88 220 4.0 10.0 0.00 0.00 0.00 18 1009.4
20220702023948 88 209 3.0 8.0 0.00 0.00 0.00 18 1009.4
20220702023441 89 186 4.0 9.0 0.00 0.00 0.00 19 1009.4
20220702022935 89 225 3.0 9.0 0.00 0.00 0.00 17 1009.4
20220702022429 89 198 3.0 9.0 0.00 0.00 0.00 18 1009.5
20220702021924 90 213 4.0 9.0 0.00 0.00 0.00 19 1009.4
20220702021423 91 209 3.0 9.0 0.00 0.00 0.00 18 1009.5
20220702020924 91 205 3.0 9.0 0.00 0.00 0.00 18 1009.5
20220702020424 92 192 3.0 8.0 0.00 0.00 0.00 18 1009.5
20220702015921 92 208 2.0 6.0 0.00 0.00 0.00 18 1009.5
20220702015419 92 199 3.0 9.0 0.00 0.00 0.00 20 1009.6
20220702014918 92 214 4.0 9.0 0.00 0.00 0.00 19 1009.7
20220702014417 93 213 3.0 8.0 0.00 0.00 0.00 18 1009.6
20220702013915 93 194 3.0 7.0 0.00 0.00 0.00 20 1009.7
20220702013416 93 217 4.0 8.0 0.00 0.00 0.00 19 1009.6
20220702012913 93 223 4.0 10.0 0.00 0.00 0.00 20 1009.7
20220702012416 93 193 3.0 10.0 0.00 0.00 0.00 20 1009.8
20220702011913 93 199 3.0 10.0 0.00 0.00 0.00 22 1009.8
20220702011413 94 213 4.0 10.0 0.00 0.00 0.00 18 1009.8
20220702010914 94 223 5.0 10.0 0.00 0.00 0.00 19 1009.9
20220702010413 94 205 4.0 10.0 0.00 0.00 0.00 20 1009.9
20220702005915 94 217 2.0 9.0 0.00 0.00 0.00 20 1009.9
20220702005413 94 196 1.0 9.0 0.00 0.00 0.00 21 1010.0
20220702004907 94 192 2.0 8.0 0.00 0.00 0.00 21 1010.1
20220702004401 94 188 4.0 10.0 0.00 0.00 0.00 20 1010.1
20220702003858 94 225 3.0 10.0 0.00 0.00 0.00 20 1010.1
20220702003357 95 164 3.0 6.0 0.00 0.00 0.00 21 1010.2
20220702002857 94 217 3.0 9.0 0.00 0.00 0.00 23 1010.2
20220702002358 94 202 3.0 9.0 0.00 0.00 0.00 22 1010.3
20220702001856 95 203 3.0 8.0 0.00 0.00 0.00 21 1010.4
20220702001357 95 200 3.0 8.0 0.00 0.00 0.00 21 1010.5
20220702000857 94 264 3.0 7.0 0.00 0.00 0.00 21 1010.5
20220702000356 95 240 3.0 7.0 0.00 0.00 0.00 20 1010.6
20220701235855 95 246 3.0 8.0 0.00 0.00 0.00 19 1010.6
20220701235355 94 205 5.0 9.0 0.00 0.00 0.00 21 1010.6
20220701234855 93 277 4.0 9.0 0.00 0.00 0.00 19 1009.8
20220701234349 94 264 4.0 9.0 0.00 0.00 0.00 20 1009.8
20220701233850 94 221 5.0 9.0 0.00 0.00 0.00 21 1009.8
20220701233345 94 220 4.0 9.0 0.00 0.00 0.00 18 1009.9
20220701232845 94 237 4.0 9.0 0.00 0.00 0.00 21 1009.9
20220701232345 95 205 5.0 10.0 0.00 0.00 0.00 19 1010.0
20220701231845 94 301 5.0 11.0 0.00 0.00 0.00 21 1010.0
20220701231343 95 234 5.0 11.0 0.00 0.00 0.00 22 1010.1
20220701230841 94 213 4.0 10.0 0.00 0.00 0.00 21 1010.1
20220701230339 94 264 4.0 9.0 0.00 0.00 0.00 22 1010.2
20220701225838 95 268 4.0 9.0 0.00 0.00 0.00 22 1010.2
20220701225339 94 216 4.0 8.0 0.00 0.00 0.00 23 1010.3
20220701224839 94 254 3.0 8.0 0.00 0.00 0.00 24 1010.3
20220701224337 94 213 3.0 7.0 0.00 0.00 0.00 24 1010.5
20220701223835 93 225 3.0 7.0 0.00 0.00 0.00 24 1010.5
20220701223333 93 272 3.0 6.0 0.00 0.00 0.00 24 1010.6
20220701222829 94 231 4.0 11.0 0.00 0.00 0.00 26 1010.7
20220701222329 94 194 4.0 11.0 0.00 0.00 0.00 28 1010.7
20220701221829 93 246 4.0 9.0 0.00 0.00 0.00 25 1010.7
20220701221323 93 248 3.0 8.0 0.00 0.00 0.00 28 1010.8
20220701220821 93 198 2.0 8.0 0.00 0.00 0.00 27 1010.9
20220701220321 94 198 2.0 8.0 0.00 0.00 0.00 25 1010.9
20220701215810 94 198 2.0 8.0 0.00 0.00 0.00 26 1010.9
20220701215305 92 155 2.0 9.0 0.00 0.00 0.00 26 1011.0
20220701214806 93 173 3.0 9.0 0.00 0.00 0.00 26 1011.0
20220701214305 92 198 3.0 10.0 0.00 0.00 0.00 29 1011.1
20220701213805 92 258 3.0 10.0 0.00 0.00 0.00 27 1011.2
20220701213304 92 172 3.0 8.0 0.00 0.00 0.00 27 1011.2
20220701212803 93 244 4.0 11.0 0.00 0.00 0.00 26 1011.3
20220701212303 93 227 2.0 11.0 0.00 0.00 0.00 26 1011.4
20220701211803 93 188 1.0 6.0 0.00 0.00 0.00 27 1011.4
20220701211303 92 150 2.0 7.0 0.00 0.00 0.00 27 1011.5
20220701210803 92 166 2.0 7.0 0.00 0.00 0.00 29 1011.5
20220701210302 91 170 2.0 9.0 0.00 0.00 0.00 29 1011.6
20220701205804 91 195 3.0 9.0 0.00 0.00 0.00 29 1011.7
20220701205301 91 219 3.0 9.0 0.00 0.00 0.00 30 1011.8